Regional Weather Roundup
Issued by NWS

Home | Current Version | Previous Version | Graphics & Text | Print | Product List | Glossary On
Versions: 1 2 3 4 5 6 7 8 9 10 11 12 13 14 15 16 17 18 19 20 21 22 23 24 25 26 27 28
000
ASUS45 KBOU 271707
RWRCO

WEATHER ROUNDUP FOR COLORADO
NATIONAL WEATHER SERVICE DENVER/BOULDER CO
1100 AM MDT WED APR 27 2016

NOTE: "FAIR" INDICATES FEW OR NO CLOUDS BELOW 12000 FEET WITH NO
SIGNIFICANT WEATHER AND/OR OBSTRUCTIONS TO VISIBILITY.

COZ001>005-013-030-031-271800-
...NORTHWEST COLORADO...

CITY           SKY/WX    TMP DP  RH WIND       PRES   REMARKS
CRAIG          PTSUNNY   46  34  62 W13       29.87F
HAYDEN         PTSUNNY   39  32  75 W6        29.88S
MEEKER         FAIR      45  32  60 E3        29.88F
MOUNT WERNER   NOT AVBL
STEAMBOAT SPGS CLOUDY    34  31  86 CALM      29.89R
WALDEN         CLOUDY    32  25  74 CALM      29.87S
$$

COZ006>008-011-271800-
...WEST CENTRAL VALLEYS...

CITY           SKY/WX    TMP DP  RH WIND       PRES   REMARKS
GRAND JUNCTION PTSUNNY   49  37  63 N3        29.88F
MONTROSE       FAIR      49  34  56 MISG      29.90F
EAGLE          MOSUNNY   46  28  49 SW22      29.87F
RIFLE          PTSUNNY   48  35  60 VRB3      29.88F
DELTA          NOT AVBL
NUCLA          NOT AVBL
$$

COZ017>023-064>068-271800-
...SOUTHWEST COLORADO...

CITY           SKY/WX    TMP DP  RH WIND       PRES   REMARKS
DURANGO        FAIR      48  29  47 W6        29.90F
CORTEZ         FAIR      53  32  44 W6        29.90F
PAGOSA SPRINGS FAIR      43  26  51 SW6       29.92S
TELLURIDE      FAIR      40  25  55 SW5       29.95S
WOLF CREEK PAS NOT AVBL
$$

COZ009-010-012-014-032>034-037-058>063-271800-
...CENTRAL COLORADO...

CITY           SKY/WX    TMP DP  RH WIND       PRES   REMARKS
ASPEN          PTSUNNY   40  28  62 CALM      29.88F
BUENA VISTA    FAIR      48  15  26 NW10G16   29.82S
COPPER MTN     NOT AVBL
BERTHOUD PASS  CLOUDY    18   9  68 NW35G43   29.82R WCI  -3
COTTONWOOD PAS FAIR      43  14  31 W9G18     29.85S
GUNNISON       CLOUDY    43  25  49 SW17G23   29.89F
KREMMLING      CLOUDY    39  28  65 W3        29.88R
LEADVILLE      CLOUDY    30  18  60 NW10G16   29.88R WCI  21
MONARCH PASS   CLOUDY    23  19  86 W37G44    29.97S WCI   4
SALIDA         FAIR      50  20  31 W21G28    29.89S
SUNLIGHT       CLOUDY   N/A N/A N/A CALM      29.96S
WILKERSON PASS FAIR      32  14  47 NW9       29.90R WCI  24
$$

COZ069>075-271800-
...SAN LUIS VALLEY/SANGRE DE CRISTO MOUNTAINS...

CITY           SKY/WX    TMP DP  RH WIND       PRES   REMARKS
ALAMOSA        FAIR      49  19  30 VRB6G18   29.86F
LA VETA PASS   FAIR      36  21  55 S10G29    29.86R
SAGUACHE       PTSUNNY   46  21  36 N15       29.86F
$$

COZ035-036-038>040-271800-
...NORTHERN COLORADO FRONT RANGE...

CITY           SKY/WX    TMP DP  RH WIND       PRES   REMARKS
DENVER INTL AP FAIR      44  26  49 N10G18    29.83R
DMNS CITY PARK   N/A     46  29  51 E7G18     29.84R
AURORA         FAIR      43  27  53 N10       29.85R
FRONT RANGE AP MOSUNNY   45  28  53 N16G25    29.83S
ERIE MUNI ARPT PTSUNNY   44  31  59 SE5       29.84R
BOULDER MUN AP PTSUNNY   43  32  65 E5        29.83R
CENTENNIAL     FAIR      43  28  55 N7G17     29.84R
BROOMFIELD     PTSUNNY  N/A N/A N/A CALM      29.84R
FORT COLLINS   FAIR      45  30  57 SW6       29.82S
LONGMONT       FAIR      47  30  51 SE7       29.84S HAZE
$$

COZ041-046-047-076>085-087-088-271800-
...PIKES PEAK/PALMER DIVIDE AND SOUTHERN FOOTHILLS...

CITY           SKY/WX    TMP DP  RH WIND       PRES   REMARKS
COLO. SPRINGS  FAIR      48  27  44 SE7       29.80S
A. F. ACADEMY  PTSUNNY   48  25  40 NE8       29.79R
SCHRIEVER AFB  NOT AVBL
ELLICOTT       NOT AVBL
FALCON         CLOUDY    45  27  50 NE9G16    29.81S
FORT CARSON    FAIR      48  30  50 E13       29.78S
LIMON          FAIR      44  27  51 N26G39    29.82R
MONUMENT HILL  FAIR      37  30  75 E6        29.85R
TRINIDAD       FAIR      52  30  43 S6        29.78F
$$

COZ042>045-048>051-090-091-271800-
...NORTHEAST COLORADO...

CITY           SKY/WX    TMP DP  RH WIND       PRES   REMARKS
GREELEY ARPT   FAIR      48  28  46 N28G36    29.80F
AKRON          FAIR      47  32  56 N30G38    29.78R
BURLINGTON     FAIR      49  30  48 NW26G37   29.75S
WRAY           NOT AVBL
STERLING       FAIR      48  32  53 N28G35    29.77S
HOLYOKE        NOT AVBL
FORT MORGAN    FAIR      48  24  39 NW28G39   29.82R
$$

COZ086-089-092>099-271800-
...SOUTHEAST COLORADO...

CITY           SKY/WX    TMP DP  RH WIND       PRES   REMARKS
PUEBLO         FAIR      52  29  41 E9        29.79R
LA JUNTA       FAIR      54  28  36 E10       29.80S
LAMAR          FAIR      55  28  35 N21G28    29.78F
SPRINGFIELD      N/A     51  29  42 N17G26    29.80S
$$




USA.gov is the U.S. government's official web portal to all federal, state and local government web resources and services.